Hancock, MI

3:50 PM EST on February 13, 2016 (GMT -0500)
Houghton County Memorial

Weather History for KCMX - April, 2014

Change the Weather History Date:

Wednesday, April 23, 2014

  Actual Average Record
Temperature  
Mean Temperature 35 °F -  
Max Temperature 46 °F 51 °F 81 °F (1990)
Min Temperature 24 °F 34 °F 19 °F (2013)
Degree Days  
Heating Degree Days 30    
Moisture  
Dew Point 21 °F    
Average Humidity 58    
Maximum Humidity 85    
Minimum Humidity 38    
Precipitation  
Precipitation 0.00 in - - ()
Sea Level Pressure  
Sea Level Pressure 30.16 in    
Wind  
Wind Speed 4 mph (ENE)    
Max Wind Speed 12 mph    
Max Gust Speed -    
Visibility 10 miles    
Events      
Averages and records for this station are not official NWS values.
T = Trace of Precipitation, MM = Missing Value Source: NWS Daily Summary

Daily Weather History Graph

Daily Weather History Graph

Search for Another Location

Airport or City:

Trip Planner

Search our weather history database for the weather conditions in past years. The results will help you decide how hot, cold, wet, or windy it might be!

Date:

Astronomy

Apr. 23, 2014 Rise Set
Actual Time 6:51 AM EDT 8:54 PM EDT
Civil Twilight 6:18 AM EDT 9:27 PM EDT
Nautical Twilight 5:37 AM EDT 10:08 PM EDT
Astronomical Twilight 4:52 AM EDT 10:53 PM EDT
Moon 3:47 AM EDT (4/23) 2:39 PM EDT (4/23)
Length of Visible Light 15h 08m
Length of Day
14h 02m
Waning Crescent, 35% of the Moon is Illuminated
Apr 23
Waning Crescent
Apr 29
New
May 6
First Quarter
May 14
Full
May 21
Last Quarter

Hourly Weather History & Observations

Time (EDT) Temp. Windchill Dew Point Humidity Pressure Visibility Wind Dir Wind Speed Gust Speed Precip Events Conditions
12:53 AM 28.0 °F - 23.0 °F 81% 30.14 in 10.0 mi Calm Calm - N/A   Clear
1:53 AM 25.0 °F 18.1 °F 21.0 °F 85% 30.15 in 10.0 mi NNW 5.8 mph - N/A   Clear
2:53 AM 24.1 °F 17.0 °F 19.9 °F 84% 30.17 in 10.0 mi NW 5.8 mph - N/A   Clear
3:53 AM 26.1 °F 20.5 °F 21.0 °F 81% 30.17 in 10.0 mi NW 4.6 mph - N/A   Clear
4:53 AM 26.1 °F 19.4 °F 21.9 °F 84% 30.17 in 10.0 mi WNW 5.8 mph - N/A   Clear
5:53 AM 28.9 °F 23.9 °F 21.9 °F 75% 30.17 in 10.0 mi NW 4.6 mph - N/A   Clear
6:53 AM 25.0 °F 18.1 °F 19.9 °F 81% 30.19 in 10.0 mi WNW 5.8 mph - N/A   Clear
7:53 AM 28.0 °F 22.8 °F 21.9 °F 78% 30.20 in 10.0 mi NW 4.6 mph - N/A   Clear
8:53 AM 36.0 °F - 27.0 °F 70% 30.20 in 10.0 mi Calm Calm - N/A   Clear
9:53 AM 42.1 °F - 21.9 °F 45% 30.20 in 10.0 mi Calm Calm - N/A   Clear
10:53 AM 41.0 °F - 21.9 °F 47% 30.20 in - North - - N/A   Unknown
11:53 AM - - - N/A% 30.16 in - North - - N/A   Unknown
12:53 PM 44.1 °F - 19.9 °F 38% 30.19 in 10.0 mi Calm Calm - N/A   Clear
1:53 PM 45.0 °F - 21.9 °F 40% 30.18 in 10.0 mi Calm Calm - N/A   Clear
2:53 PM 46.9 °F - 25.0 °F 42% 30.17 in 10.0 mi South 6.9 mph - N/A   Clear
3:53 PM 46.9 °F - 23.0 °F 39% 30.16 in 10.0 mi SSE 6.9 mph - N/A   Clear
4:53 PM 45.0 °F 41.2 °F 21.9 °F 40% 30.15 in 10.0 mi East 6.9 mph - N/A   Clear
5:53 PM 42.1 °F 36.6 °F 21.0 °F 43% 30.14 in 10.0 mi East 9.2 mph - N/A   Clear
6:53 PM 39.9 °F 35.1 °F 21.9 °F 49% 30.14 in 10.0 mi East 6.9 mph - N/A   Clear
7:53 PM 39.0 °F 32.8 °F 21.0 °F 49% 30.13 in 10.0 mi East 9.2 mph - N/A   Clear
8:53 PM 36.0 °F 28.5 °F 19.9 °F 52% 30.11 in 10.0 mi East 10.4 mph - N/A   Clear
9:53 PM 36.0 °F 28.0 °F 19.9 °F 52% 30.12 in 10.0 mi East 11.5 mph - N/A   Clear
10:53 PM 36.0 °F 29.0 °F 18.0 °F 48% 30.12 in 10.0 mi East 9.2 mph - N/A   Clear
11:53 PM 37.0 °F 31.6 °F 16.0 °F 42% 30.08 in 10.0 mi East 6.9 mph - N/A   Clear